BEARDSLEY LAKE (BRD)

Elevation: 3398' · STANISLAUS R basin · Operator: Oakdale South San Joaquin Irrigation District

Provisional data, subject to change.
Query executed Wednesday at 21:46:54   clock

Select a sensor type for a plot of data.
Note: Reservoir Flows are daily averages.

Earlier

Date STORAGE    RES CHG    OUTFLOW    PPT INC   
 AF   AF   CFS   INCHES  
04/05/2016 75281 667 653 0.00
04/06/2016 75780 -- 654 0.00
04/07/2016 76875 1095 662 0.00
04/08/2016 77864 989 678 0.00
04/09/2016 79076 1212 674 0.62
04/10/2016 80229 1153 672 0.93
04/11/2016 81215 986 667 0.00
04/12/2016 81790 575 774 0.00
04/13/2016 82253 463 881 0.00
04/14/2016 82649 396 885 0.03
04/15/2016 82905 256 897 0.00
04/16/2016 83140 235 909 0.00
04/17/2016 83377 237 913 0.00
04/18/2016 83606 229 919 0.00
04/19/2016 83936 330 925 0.00
04/20/2016 83876 -60 927 0.00
04/21/2016 84045 169 931 0.00
04/22/2016 84256 211 934 0.00
04/23/2016 84405 149 941 1.41
04/24/2016 84500 95 945 0.00
04/25/2016 84398 -102 1059 0.09
04/26/2016 84154 -244 1096 0.05
04/27/2016 83829 -325 1083 0.00
04/28/2016 83566 -- 1104 0.00
04/29/2016 83357 -209 1120 0.00
04/30/2016 82838 -519 1122 0.00
05/01/2016 82582 -256 1123 0.00
05/02/2016 82313 -269 1125 0.00
05/03/2016 82119 -194 1120 0.00
05/04/2016 -- -- -- --

Later | Latest

Warning! This data is preliminary and subject to revision.

Show BRD Map | Plot BRD Data | 1 Month BRD Data | Real-Time BRD Data | BRD Info